x

8452951 - Potter Cove, Prudence Island, Ri (ptcr1) Weather Station

12:54 - Tue 26th May 2015 All times are EDT. -4 hours from GMT.

  • Wind
    7mph, 11mph gusts
  • Ar Temp 62°f
  • Sea Pressure 1023.5mb
  • 8452951 - Potter Cove, Prudence Island, Ri
  • 8452951 - Potter Cove, Prudence Island, Ri

More Historic Weather Station data

Upgrade to MSW Pro to gain access to the past 30 days of data for over 8000 Wavebouys and Weather Stations around the globe.

Join Pro

Comparision Forecast

View Surf forecast
   
Ter 05/26 12:54 7 11 mph 1023.5mb 62f
12:48 7 14 mph 1023.5mb 62f
12:42 8 16 mph 1023.5mb 62f
12:36 8 14 mph 1023.5mb 62f
12:30 7 11 mph 1023.5mb 62f
12:24 8 14 mph 1023.5mb 62f
12:18 8 14 mph 1023.5mb 62f
12:12 8 14 mph 1023.6mb 62f
12:06 9 16 mph 1023.6mb 62f
12:00 8 15 mph 1023.5mb 61f
Seg 05/25 11:54 7 14 mph 1023.6mb 61f
11:48 8 16 mph 1023.5mb 61f
11:42 7 11 mph 1023.5mb 61f
11:36 7 11 mph 1023.5mb 61f
11:30 7 14 mph 1023.4mb 61f
11:24 7 15 mph 1023.3mb 61f
11:18 7 14 mph 1023.3mb 61f
11:12 7 15 mph 1023.4mb 61f
11:06 6 10 mph 1023.4mb 61f
11:00 6 9 mph 1023.4mb 61f
10:54 6 14 mph 1023.4mb 60f
10:48 6 10 mph 1023.4mb 59f
10:42 6 13 mph 1023.4mb 59f
10:36 6 11 mph 1023.4mb 59f
10:30 6 13 mph 1023.4mb 60f
10:24 6 13 mph 1023.5mb 60f
10:18 6 11 mph 1023.5mb 60f
10:12 6 13 mph 1023.6mb 60f
10:06 6 11 mph 1023.6mb 60f
10:00 7 11 mph 1023.7mb 60f
9:54 6 9 mph 1023.7mb 60f
9:48 6 11 mph 1023.6mb 60f
9:42 6 11 mph 1023.6mb 60f
9:36 6 10 mph 1023.6mb 60f
9:30 6 9 mph 1023.5mb 60f
9:24 6 13 mph 1023.5mb 60f
9:18 5 9 mph 1023.6mb 60f
9:12 5 9 mph 1023.6mb 59f
9:06 5 7 mph 1023.5mb 59f
9:00 7 11 mph 1023.5mb 59f
8:54 6 11 mph 1023.5mb 59f
8:48 6 16 mph 1023.4mb 59f
8:42 7 15 mph 1023.4mb 59f
8:36 7 15 mph 1023.4mb 59f
8:30 6 15 mph 1023.4mb 59f
8:24 7 14 mph 1023.5mb 59f
8:18 7 13 mph 1023.5mb 59f
8:12 8 14 mph 1023.5mb 59f
8:06 8 13 mph 1023.4mb 59f
8:00 8 16 mph 1023.5mb 60f
7:54 7 15 mph 1023.4mb 60f
7:48 8 16 mph 1023.4mb 60f
7:42 7 15 mph 1023.4mb 60f
7:36 7 15 mph 1023.4mb 60f
7:30 8 16 mph 1023.4mb 61f
7:24 7 14 mph 1023.5mb 61f
7:18 7 15 mph 1023.5mb 61f
7:12 7 15 mph 1023.5mb 61f
7:06 7 14 mph 1023.5mb 62f
7:00 7 14 mph 1023.5mb 62f
6:54 7 11 mph 1023.5mb 62f
6:48 7 11 mph 1023.5mb 62f
6:42 7 14 mph 1023.5mb 63f
6:36 7 16 mph 1023.6mb 63f
6:30 7 15 mph 1023.7mb 63f
6:24 7 15 mph 1023.6mb 63f
6:18 7 14 mph 1023.6mb 64f
6:12 7 15 mph 1023.5mb 64f
6:06 7 14 mph 1023.4mb 65f
6:00 7 15 mph 1023.4mb 65f
5:54 7 17 mph 1023.5mb 65f
5:48 7 13 mph 1023.5mb 65f
5:42 8 14 mph 1023.7mb 65f
5:36 8 14 mph 1023.8mb 65f
5:30 7 14 mph 1023.7mb 65f
5:24 8 15 mph 1023.7mb 63f
5:18 7 13 mph 1023.7mb 63f
5:12 6 11 mph 1023.8mb 63f
5:06 6 13 mph 1023.7mb 63f
5:00 7 15 mph 1023.7mb 63f
4:54 7 15 mph 1023.7mb 63f
4:48 7 16 mph 1023.7mb 63f
4:42 6 14 mph 1023.8mb 64f
4:36 6 13 mph 1023.8mb 64f
4:30 8 11 mph 1023.8mb 64f
4:24 7 13 mph 1023.8mb 64f
4:18 7 13 mph 1023.8mb 65f
4:12 6 13 mph 1023.8mb 65f
4:06 7 13 mph 1023.8mb 65f
4:00 8 14 mph 1023.7mb 65f
3:54 6 11 mph 1023.8mb 65f
3:48 7 15 mph 1023.8mb 66f
3:42 6 11 mph 1023.7mb 66f
3:36 6 14 mph 1023.7mb 66f
3:30 7 15 mph 1023.8mb 67f
3:24 7 15 mph 1023.9mb 67f
3:18 7 14 mph 1024mb 68f
3:12 7 11 mph 1024.1mb 68f
3:06 7 14 mph 1024.1mb 68f
3:00 8 15 mph 1024.1mb 69f
2:54 6 13 mph 1024.1mb 67f
2:48 7 15 mph 1024.1mb 67f
2:42 6 13 mph 1024.1mb 67f
2:36 8 13 mph 1024mb 68f
2:30 7 14 mph 1024mb 68f
2:24 7 15 mph 1024.1mb 69f
2:18 7 15 mph 1024.2mb 69f
2:12 7 15 mph 1024.2mb 70f
2:06 8 15 mph 1024.2mb 70f
2:00 7 16 mph 1024.3mb 70f
1:54 7 14 mph 1024.4mb 70f
1:48 8 16 mph 1024.5mb 70f
1:42 7 14 mph 1024.5mb 69f
1:36 7 14 mph 1024.5mb 69f
1:30 7 14 mph 1024.5mb 69f
1:24 8 15 mph 1024.9mb 68f
1:18 7 15 mph 1025mb 68f
1:12 7 14 mph 1025.1mb 66f
1:06 8 14 mph 1025.1mb 66f
1:00 7 11 mph 1025.1mb 65f
12:54 7 13 mph 1025.2mb 64f
12:48 6 14 mph 1025.2mb 64f
12:42 7 15 mph 1025.2mb 65f
12:36 6 13 mph 1025.2mb 64f
12:30 6 14 mph 1025.2mb 64f
12:24 6 11 mph 1025.3mb 64f
12:18 6 10 mph 1025.3mb 65f
12:12 5 11 mph 1025.3mb 65f
12:06 5 11 mph 1025.4mb 64f
12:00 6 11 mph 1025.5mb 64f
11:54 6 10 mph 1025.5mb 65f
11:48 6 13 mph 1025.6mb 64f
11:42 6 11 mph 1025.5mb 64f
11:36 6 10 mph 1025.6mb 64f
11:30 6 9 mph 1025.6mb 64f
11:24 6 10 mph 1025.6mb 65f
11:18 6 10 mph 1025.6mb 65f
11:12 5 10 mph 1025.6mb 64f
11:06 6 13 mph 1025.6mb 64f
11:00 5 9 mph 1025.6mb 64f
10:54 6 11 mph 1025.5mb 65f
10:48 5 11 mph 1025.4mb 66f
10:42 5 9 mph 1025.4mb 67f
10:36 6 10 mph 1025.4mb 66f
10:30 6 11 mph 1025.4mb 67f
10:24 7 13 mph 1025.4mb 67f
10:18 5 10 mph 1025.4mb 66f
10:12 6 9 mph 1025.4mb 66f
10:06 6 10 mph 1025.4mb 66f
10:00 6 10 mph 1025.4mb 67f
9:54 3 7 mph 1025.4mb 66f
9:48 3 8 mph 1025.4mb 66f
9:42 5 9 mph 1025.4mb 65f
9:36 3 8 mph 1025.5mb 64f
9:30 5 8 mph 1025.5mb 64f
9:24 5 8 mph 1025.6mb 63f
9:18 7 10 mph 1025.6mb 62f
9:12 3 7 mph 1025.6mb 63f
9:06 5 9 mph 1025.5mb 63f
9:00 6 9 mph 1025.5mb 63f
8:54 7 10 mph 1025.5mb 62f
8:48 5 9 mph 1025.5mb 62f
8:42 7 11 mph 1025.5mb 62f
8:36 7 13 mph 1025.6mb 62f
8:30 6 9 mph 1025.6mb 62f
8:24 7 10 mph 1025.6mb 61f
8:18 5 8 mph 1025.6mb 62f
8:12 6 10 mph 1025.7mb 62f
8:06 6 9 mph 1025.6mb 61f
8:00 6 10 mph 1025.7mb 61f
7:54 6 10 mph 1025.7mb 61f
7:48 5 8 mph 1025.6mb 61f
7:42 6 11 mph 1025.6mb 60f
7:36 6 10 mph 1025.7mb 60f
7:30 5 9 mph 1025.7mb 59f
7:24 5 8 mph 1025.7mb 59f
7:18 5 9 mph 1025.7mb 59f
7:12 6 10 mph 1025.6mb 58f
7:06 6 10 mph 1025.6mb 58f
7:00 5 8 mph 1025.6mb 58f
6:54 6 9 mph 1025.6mb 58f
6:48 5 9 mph 1025.6mb 57f
6:42 3 7 mph 1025.5mb 58f
6:36 5 9 mph 1025.5mb 57f
6:30 5 9 mph 1025.5mb 57f
6:24 3 7 mph 1025.5mb 56f
6:18 5 9 mph 1025.6mb 56f
6:12 5 9 mph 1025.6mb 56f
6:06 5 8 mph 1025.6mb 56f
6:00 5 10 mph 1025.5mb 55f
5:54 5 8 mph 1025.5mb 55f
5:48 3 8 mph 1025.5mb 55f
5:42 3 6 mph 1025.5mb 55f
5:36 5 7 mph 1025.4mb 55f
5:30 5 8 mph 1025.3mb 55f
5:24 5 9 mph 1025.3mb 55f
5:18 5 8 mph 1025.3mb 55f
5:12 5 7 mph 1025.2mb 55f
5:06 5 9 mph 1025.2mb 55f
5:00 3 7 mph 1025.1mb 55f
4:54 5 9 mph 1025mb 55f
4:48 6 10 mph 1024.9mb 55f
4:42 5 9 mph 1024.9mb 55f
4:36 5 8 mph 1024.9mb 55f
4:30 5 8 mph 1024.9mb 55f
4:24 5 7 mph 1024.8mb 55f
4:18 5 8 mph 1024.8mb 55f
4:12 5 8 mph 1024.8mb 55f
4:06 5 6 mph 1024.8mb 55f
4:00 3 8 mph 1024.8mb 56f
3:54 5 8 mph 1024.8mb 56f
3:48 5 7 mph 1024.8mb 56f
3:42 5 7 mph 1024.7mb 56f
3:36 3 6 mph 1024.7mb 56f
3:30 5 7 mph 1024.7mb 57f
3:24 3 6 mph 1024.7mb 57f
3:18 3 6 mph 1024.7mb 57f
3:12 3 6 mph 1024.7mb 57f
3:06 3 7 mph 1024.8mb 57f
3:00 3 7 mph 1024.7mb 57f
2:54 3 7 mph 1024.7mb 57f
2:48 3 7 mph - 57f
2:42 3 9 mph - 58f
2:36 5 8 mph - 58f
2:30 5 8 mph 1024.7mb 58f
2:24 6 8 mph 1024.8mb 58f
2:18 6 9 mph 1024.9mb 58f
2:12 6 8 mph 1024.9mb 58f
2:06 5 7 mph 1024.9mb 57f
2:00 5 8 mph 1025mb 58f
1:54 3 7 mph 1024.9mb 57f
1:48 3 7 mph 1024.9mb 57f
1:42 3 7 mph 1024.9mb 58f
1:36 3 7 mph 1024.9mb 58f
1:30 5 10 mph 1024.9mb 58f
1:24 7 10 mph 1024.8mb 58f
1:18 6 10 mph 1024.8mb 58f
1:12 6 9 mph 1025mb 58f
1:06 6 10 mph 1025mb 58f
1:00 6 10 mph 1025.1mb 58f
12:54 6 10 mph 1025.1mb 58f
12:48 5 6 mph 1025.1mb 58f
12:42 3 6 mph 1025.3mb 58f
12:36 3 5 mph 1025.3mb 58f
12:30 3 7 mph 1025.3mb 58f
12:24 3 5 mph 1025.3mb 58f
12:18 2 3 mph 1025.3mb 58f
12:12 2 5 mph 1025.3mb 58f
12:06 1 2 mph 1025.3mb 59f
12:00 2 3 mph 1025.3mb 59f
Dom 05/24 11:54 3 7 mph 1025.4mb 60f
11:48 3 8 mph 1025.4mb 60f
11:42 6 10 mph 1025.5mb 60f
11:36 5 8 mph 1025.5mb 60f
11:30 3 9 mph 1025.5mb 60f
11:24 3 10 mph 1025.5mb 60f
11:18 5 9 mph 1025.4mb 61f
11:12 6 11 mph 1025.4mb 61f
11:06 7 11 mph 1025.3mb 61f
11:00 8 14 mph 1025.3mb 61f
10:54 7 10 mph 1025.4mb 61f
10:48 5 8 mph 1025.4mb 61f
10:42 5 7 mph 1025.3mb 60f
10:36 6 10 mph 1025.4mb 61f
10:30 6 10 mph 1025.3mb 61f
10:24 6 10 mph 1025.4mb 61f
10:18 6 10 mph 1025.4mb 61f
10:12 6 10 mph 1025.4mb 61f
10:06 6 9 mph 1025.4mb 61f
10:00 6 9 mph 1025.3mb 61f
9:54 5 8 mph 1025.3mb 61f
9:48 6 10 mph 1025.3mb 61f
9:42 6 10 mph 1025.2mb 61f
9:36 6 9 mph 1025.2mb 61f
9:30 6 10 mph 1025.2mb 61f
9:24 6 9 mph 1025.2mb 61f
9:18 7 13 mph 1025mb 61f
9:12 7 13 mph 1024.9mb 61f
9:06 6 10 mph 1024.9mb 61f
9:00 6 10 mph 1024.9mb 61f
8:54 6 10 mph 1024.8mb 61f
8:48 7 15 mph 1024.7mb 61f
8:42 6 10 mph 1024.7mb 61f
8:36 5 9 mph 1024.7mb 61f
8:30 6 9 mph 1024.6mb 61f
8:24 6 11 mph 1024.5mb 61f
8:18 7 11 mph 1024.5mb 61f
8:12 8 14 mph 1024.4mb 62f
8:06 7 13 mph 1024.4mb 62f
8:00 6 11 mph 1024.5mb 62f
7:54 6 11 mph 1024.4mb 62f
7:48 6 10 mph 1024.3mb 62f
7:42 7 14 mph 1024.3mb 63f
7:36 7 13 mph 1024.3mb 63f
7:30 7 11 mph 1024.3mb 63f
7:24 7 11 mph 1024.1mb 63f
7:18 7 11 mph 1024.2mb 64f
7:12 8 13 mph 1024mb 64f
7:06 8 14 mph 1024mb 64f
7:00 7 15 mph 1023.9mb 64f
6:54 7 14 mph 1023.9mb 65f
6:48 7 13 mph 1024mb 65f
6:42 7 14 mph 1023.9mb 65f
6:36 6 11 mph 1023.9mb 65f
6:30 8 13 mph 1023.7mb 65f
6:24 8 13 mph 1023.7mb 65f
6:18 10 16 mph 1023.7mb 65f
6:12 11 18 mph 1023.7mb 65f
6:06 9 18 mph 1023.8mb 65f
6:00 7 13 mph 1023.8mb 65f
5:54 8 14 mph 1023.8mb 64f
5:48 6 11 mph 1023.9mb 64f
5:42 7 14 mph 1023.8mb 63f
5:36 7 14 mph 1023.7mb 66f
5:30 7 14 mph 1023.7mb 65f
5:24 8 15 mph 1023.7mb 65f
5:18 8 17 mph 1023.8mb 65f
5:12 9 16 mph 1023.9mb 65f
5:06 8 15 mph 1023.9mb 65f
5:00 8 15 mph 1023.8mb 65f
4:54 7 16 mph 1023.8mb 65f
4:48 7 16 mph 1023.9mb 65f
4:42 7 16 mph 1023.8mb 65f
4:36 6 13 mph 1023.9mb 65f
4:30 6 13 mph 1023.8mb 66f
4:24 8 14 mph 1023.8mb 66f
4:18 6 14 mph 1023.8mb 67f
4:12 9 17 mph 1023.8mb 66f
4:06 8 15 mph 1023.8mb 66f
4:00 9 16 mph 1023.8mb 66f
3:54 9 18 mph 1023.7mb 67f
3:48 9 18 mph 1023.8mb 67f
3:42 8 22 mph 1023.8mb 67f
3:36 9 20 mph 1023.9mb 67f
3:30 9 18 mph 1023.9mb 67f
3:24 7 14 mph 1023.9mb 67f
3:18 9 18 mph 1024mb 67f
3:12 8 17 mph 1024mb 67f
3:06 8 14 mph 1023.9mb 69f
3:00 8 15 mph 1024mb 69f
2:54 8 16 mph 1024mb 69f
2:48 7 14 mph 1024.1mb 70f
2:42 7 15 mph 1024mb 70f
2:36 7 14 mph 1023.9mb 71f
2:30 7 15 mph 1024mb 73f
2:24 8 14 mph 1024mb 72f
2:18 9 17 mph 1023.9mb 73f
2:12 8 15 mph 1024mb 73f
2:06 10 18 mph 1023.9mb 73f
2:00 11 20 mph 1024mb 72f
1:54 11 18 mph 1024mb 72f
1:48 10 20 mph 1024.1mb 73f
1:42 9 17 mph 1024.3mb 73f
1:36 10 17 mph 1024.3mb 72f
1:30 11 20 mph 1024.4mb 72f
1:24 11 18 mph 1024.5mb 71f
1:18 11 18 mph 1024.5mb 71f
1:12 8 14 mph 1024.6mb 71f
1:06 8 15 mph 1024.7mb 71f
1:00 7 11 mph 1024.8mb 72f
12:54 8 13 mph 1024.9mb 71f
12:48 9 15 mph 1025mb 70f
12:42 7 15 mph 1025mb 71f
12:36 8 15 mph 1025.1mb 69f
12:30 6 11 mph 1025.1mb 70f
12:24 6 9 mph 1025.2mb 70f
12:18 8 14 mph 1025.2mb 69f
12:12 7 11 mph 1025.3mb 72f
12:06 7 13 mph 1025.3mb 73f
12:00 9 15 mph 1025.4mb 73f
11:54 8 11 mph 1025.5mb 73f
11:48 8 11 mph 1025.6mb 74f
11:42 7 13 mph 1025.7mb 73f
11:36 7 10 mph 1025.7mb 73f
11:30 8 11 mph 1025.7mb 72f
11:24 6 13 mph 1025.7mb 71f
11:18 3 7 mph 1025.7mb 70f
11:12 6 8 mph 1025.8mb 69f
11:06 7 10 mph 1025.8mb 68f
11:00 7 13 mph 1026mb 67f
10:54 5 9 mph 1026mb 68f
10:48 6 10 mph 1026.2mb 67f
10:42 7 11 mph 1026.3mb 67f
10:36 6 10 mph 1026.4mb 67f
10:30 6 9 mph 1026.4mb 66f
10:24 6 11 mph 1026.4mb 66f
10:18 7 11 mph 1026.4mb 66f
10:12 7 11 mph 1026.5mb 67f
10:06 6 9 mph 1026.5mb 67f
10:00 7 13 mph 1026.5mb 67f
9:54 7 13 mph 1026.4mb 66f
9:48 9 15 mph 1026.4mb 65f
9:42 8 13 mph 1026.5mb 66f
9:36 10 15 mph 1026.5mb 65f
9:30 9 13 mph 1026.5mb 65f
9:24 9 15 mph 1026.5mb 64f
9:18 9 15 mph 1026.5mb 64f
9:12 10 15 mph 1026.6mb 63f
9:06 10 17 mph 1026.7mb 62f
9:00 10 14 mph 1026.8mb 62f
8:54 9 14 mph 1026.8mb 61f
8:48 9 14 mph 1026.8mb 61f
8:42 9 14 mph 1026.8mb 60f
8:36 8 13 mph 1026.8mb 61f
8:30 7 11 mph 1026.9mb 60f
8:24 7 11 mph 1026.8mb 59f
8:18 7 11 mph 1026.8mb 59f
8:12 7 13 mph 1026.9mb 59f
8:06 5 9 mph 1027mb 58f
8:00 6 9 mph 1027mb 58f
7:54 5 8 mph 1027mb 57f
7:48 6 8 mph 1026.9mb 57f
7:42 6 11 mph 1026.8mb 56f
7:36 6 13 mph 1026.7mb 56f
7:30 7 10 mph 1026.7mb 55f
7:24 7 11 mph 1026.7mb 55f
7:18 7 11 mph 1026.8mb 55f
7:12 7 13 mph 1026.8mb 54f
7:06 7 11 mph 1026.8mb 54f
7:00 7 13 mph 1026.8mb 53f
6:54 7 11 mph 1026.9mb 53f
6:48 7 13 mph 1026.9mb 53f
6:42 7 13 mph 1026.9mb 53f
6:36 7 11 mph 1027mb 52f
6:30 7 11 mph 1027.1mb 52f
6:24 7 11 mph 1027.2mb 52f
6:18 7 11 mph 1027.2mb 52f
6:12 7 11 mph 1027.1mb 52f
6:06 8 11 mph 1027mb 52f
6:00 7 14 mph 1026.8mb 52f
5:54 7 11 mph 1026.7mb 52f
5:48 8 13 mph 1026.6mb 52f
5:42 8 15 mph 1026.6mb 52f
5:36 9 13 mph 1026.7mb 52f
5:30 10 15 mph 1026.7mb 52f
5:24 9 15 mph 1026.6mb 52f
5:18 10 15 mph 1026.7mb 52f
5:12 10 17 mph 1026.8mb 52f
5:06 8 14 mph 1026.8mb 51f
5:00 9 14 mph 1026.7mb 51f
4:54 10 15 mph 1026.7mb 52f
4:48 9 18 mph 1026.7mb 51f
4:42 8 13 mph 1026.7mb 51f
4:36 9 15 mph 1026.7mb 51f
4:30 7 11 mph 1026.7mb 51f
4:24 9 14 mph 1026.7mb 51f
4:18 8 15 mph 1026.8mb 51f
4:12 8 15 mph 1026.9mb 51f
4:06 9 15 mph 1026.9mb 51f
4:00 9 15 mph 1027mb 51f
3:54 10 15 mph 1027mb 51f
3:48 9 14 mph 1027mb 51f
3:42 9 14 mph 1027mb 51f
3:36 8 13 mph 1027.1mb 51f
3:30 8 14 mph 1027.1mb 51f
3:24 7 13 mph 1027.2mb 51f
3:18 8 15 mph 1027.2mb 51f
3:12 8 13 mph 1027.2mb 51f
3:06 9 15 mph 1027.2mb 51f
3:00 8 13 mph 1027.2mb 51f
2:54 8 14 mph 1027.2mb 51f
2:48 8 13 mph 1027.3mb 51f
2:42 8 13 mph 1027.3mb 51f
2:36 7 13 mph 1027.3mb 51f
2:30 8 13 mph 1027.3mb 51f
2:24 7 11 mph 1027.3mb 51f
2:18 7 13 mph 1027.3mb 51f
2:12 7 10 mph 1027.2mb 51f
2:06 7 14 mph 1027.1mb 51f
2:00 8 14 mph - 51f
1:54 8 14 mph - 51f
1:48 8 13 mph 1027.2mb 51f
1:42 8 14 mph 1027.2mb 51f
1:36 8 13 mph 1027.3mb 51f
1:30 7 11 mph 1027.3mb 51f
1:24 8 14 mph 1027.4mb 51f
1:18 7 13 mph 1027.5mb 51f
1:12 10 17 mph 1027.5mb 51f
1:06 8 13 mph 1027.5mb 51f
1:00 7 11 mph 1027.5mb 51f
12:54 7 13 mph 1027.5mb 51f
12:48 8 13 mph 1027.5mb 51f
12:42 8 15 mph 1027.5mb 51f
12:36 8 13 mph 1027.5mb 52f
12:30 8 15 mph 1027.6mb 52f
12:24 8 15 mph 1027.5mb 52f
12:18 9 16 mph 1027.5mb 52f
12:12 11 18 mph 1027.5mb 52f
12:06 10 21 mph 1027.4mb 52f
12:00 9 15 mph 1027.5mb 52f
Sáb 05/23 11:54 9 16 mph 1027.5mb 52f
11:48 9 17 mph 1027.6mb 52f
11:42 10 17 mph 1027.6mb 52f
11:36 9 15 mph 1027.7mb 52f
11:30 9 15 mph 1027.7mb 52f
11:24 9 15 mph 1027.6mb 53f
11:18 11 20 mph 1027.4mb 53f
11:12 10 16 mph 1027.3mb 53f
11:06 11 17 mph 1027.3mb 53f
11:00 9 14 mph 1027.3mb 53f
10:54 9 13 mph 1027.3mb 53f
10:48 9 16 mph 1027.3mb 53f
10:42 10 18 mph 1027.3mb 53f
10:36 11 16 mph 1027.2mb 54f
10:30 9 16 mph 1027.2mb 54f
10:24 9 14 mph 1027.2mb 54f
10:18 10 20 mph 1027.3mb 54f
10:12 10 15 mph 1027.3mb 54f
10:06 10 16 mph 1027.4mb 54f
10:00 10 20 mph 1027.3mb 54f
9:54 10 16 mph 1027.3mb 54f
9:48 9 16 mph 1027.2mb 54f
9:42 11 17 mph 1027.2mb 55f
9:36 9 16 mph 1027.2mb 55f
9:30 10 16 mph 1027.1mb 55f
9:24 9 14 mph 1027.1mb 55f
9:18 9 15 mph 1027.1mb 55f
9:12 10 15 mph 1027.1mb 55f
9:06 9 14 mph 1027.1mb 54f
9:00 10 17 mph 1027.1mb 54f
8:54 11 17 mph 1027mb 54f
8:48 9 17 mph 1026.9mb 55f
8:42 10 17 mph 1026.9mb 55f
8:36 8 13 mph 1026.9mb 55f
8:30 8 14 mph 1026.8mb 55f
8:24 6 10 mph 1026.8mb 55f
8:18 7 11 mph 1026.8mb 55f
8:12 7 13 mph 1026.8mb 55f
8:06 8 13 mph 1026.8mb 55f
8:00 8 14 mph 1026.8mb 56f
7:54 8 14 mph 1026.7mb 56f
7:48 8 15 mph 1026.7mb 57f
7:42 8 15 mph 1026.7mb 57f
7:36 8 13 mph 1026.7mb 57f
7:30 8 14 mph 1026.6mb 58f
7:24 8 15 mph 1026.6mb 58f
7:18 8 15 mph 1026.5mb 59f
7:12 6 9 mph 1026.5mb 59f
7:06 7 13 mph 1026.6mb 59f
7:00 6 11 mph 1026.6mb 59f
6:54 7 14 mph 1026.5mb 63f
6:48 6 10 mph 1026.5mb 63f
6:42 8 14 mph 1026.4mb 64f
6:36 8 11 mph 1026.3mb 64f
6:30 5 9 mph 1026.2mb 64f
6:24 8 13 mph 1026.3mb 64f
6:18 6 9 mph 1026.3mb 64f
6:12 7 11 mph 1026.3mb 64f
6:06 5 9 mph 1026.3mb 65f
6:00 7 14 mph 1026.2mb 64f
5:54 7 11 mph 1026.2mb 65f
5:48 5 8 mph 1026.2mb 65f
5:42 5 9 mph 1026.3mb 65f
5:36 5 8 mph 1026.3mb 64f
5:30 6 10 mph 1026.3mb 64f
5:24 6 9 mph 1026.3mb 65f
5:18 6 10 mph 1026.3mb 65f
5:12 7 11 mph 1026.3mb 64f
5:06 8 13 mph 1026.3mb 65f
5:00 5 14 mph 1026.3mb 65f
4:54 7 13 mph 1026.3mb 64f
4:48 6 11 mph 1026.4mb 65f
4:42 6 14 mph 1026.4mb 65f
4:36 8 14 mph 1026.5mb 64f
4:30 7 13 mph 1026.5mb 64f
4:24 7 13 mph 1026.5mb 64f
4:18 7 14 mph 1026.6mb 64f
4:12 6 13 mph 1026.7mb 64f
4:06 8 16 mph 1026.8mb 64f
4:00 8 15 mph 1026.8mb 64f
3:54 8 14 mph 1026.9mb 64f
3:48 6 11 mph 1027mb 64f
3:42 8 13 mph 1027mb 64f
3:36 7 11 mph 1027.1mb 63f
3:30 8 14 mph 1027mb 64f
3:24 7 14 mph 1027mb 64f
3:18 6 9 mph 1027mb 63f
3:12 7 14 mph 1027.1mb 63f
3:06 8 14 mph 1027.2mb 63f
3:00 5 8 mph 1027.2mb 63f
2:54 7 14 mph 1027.3mb 62f
2:48 7 11 mph 1027.3mb 61f
2:42 6 10 mph 1027.4mb 62f
2:36 7 14 mph 1027.5mb 62f
2:30 7 14 mph 1027.5mb 62f
2:24 5 9 mph 1027.6mb 62f
2:18 3 8 mph 1027.6mb 61f
2:12 3 8 mph 1027.7mb 62f
2:06 6 11 mph 1027.7mb 61f
2:00 6 10 mph 1027.7mb 60f
1:54 5 9 mph 1027.7mb 61f
1:48 6 11 mph 1027.8mb 61f
1:42 7 13 mph 1027.8mb 60f
1:36 5 9 mph 1027.8mb 60f
1:30 6 11 mph 1027.9mb 60f
1:24 6 11 mph 1027.9mb 60f
1:18 6 10 mph 1028mb 60f
1:12 5 10 mph 1028.1mb 60f
1:06 7 16 mph 1028.1mb 60f
1:00 7 11 mph 1028.1mb 58f
12:54 9 14 mph 1028.1mb 58f
12:48 6 10 mph 1028.1mb 58f
12:42 8 13 mph 1028.1mb 58f
12:36 7 11 mph 1028.1mb 59f
12:30 5 11 mph 1028.1mb 58f
12:24 6 10 mph 1028.1mb 57f
12:18 7 10 mph 1028.1mb 56f
12:12 6 13 mph 1028.2mb 56f
12:06 9 16 mph 1028.2mb 58f
12:00 7 14 mph 1028.1mb 57f
11:54 6 13 mph 1028.1mb 57f
11:48 7 11 mph 1028.2mb 56f
11:42 3 10 mph 1028.3mb 56f
11:36 3 8 mph 1028.3mb 56f
11:30 2 6 mph 1028.3mb 56f
11:24 2 7 mph 1028.3mb 55f
11:18 6 13 mph 1028.3mb 55f
11:12 5 9 mph 1028.3mb 54f
11:06 2 7 mph 1028.3mb 54f
11:00 5 8 mph 1028.3mb 54f
10:54 5 10 mph 1028.3mb 54f
10:48 6 14 mph 1028.2mb 55f
10:42 7 11 mph 1028.3mb 54f
10:36 2 7 mph 1028.3mb 54f
10:30 6 13 mph 1028.3mb 54f
10:24 5 14 mph 1028.2mb 52f
10:18 3 9 mph 1028.2mb 52f
10:12 6 11 mph 1028.3mb 53f
10:06 3 8 mph 1028.3mb 51f
10:00 6 11 mph 1028.3mb 52f
9:54 6 10 mph 1028.1mb 53f
9:48 6 10 mph 1028.1mb 52f
9:42 5 10 mph 1028.1mb 52f
9:36 5 13 mph 1028.2mb 51f
9:30 7 11 mph 1028.1mb 51f
9:24 6 11 mph 1028.1mb 51f
9:18 6 10 mph 1028mb 51f
9:12 6 16 mph 1028mb 51f
9:06 8 16 mph 1028mb 50f
9:00 9 17 mph 1028mb 50f
8:54 5 10 mph 1028mb 50f
8:48 8 15 mph 1027.8mb 49f
8:42 6 11 mph 1027.9mb 50f
8:36 6 13 mph 1027.9mb 50f
8:30 7 16 mph 1027.8mb 49f
8:24 6 14 mph 1027.7mb 49f
8:18 8 15 mph 1027.7mb 49f
8:12 7 15 mph 1027.6mb 49f
8:06 8 14 mph 1027.5mb 49f
8:00 8 16 mph 1027.5mb 48f
7:54 6 11 mph 1027.4mb 48f
7:48 8 14 mph 1027.3mb 49f
7:42 9 15 mph 1027.3mb 48f
7:36 6 13 mph 1027.4mb 49f
7:30 7 11 mph 1027.2mb 49f
7:24 7 14 mph 1027.2mb 48f
7:18 6 13 mph 1027.1mb 49f
7:12 8 16 mph 1027.1mb 48f
7:06 10 15 mph 1026.9mb 48f
7:00 9 17 mph 1026.8mb 47f
6:54 9 16 mph 1026.7mb 48f
6:48 8 15 mph 1026.7mb 48f
6:42 9 15 mph 1026.6mb 48f
6:36 11 16 mph 1026.4mb 48f
6:30 11 17 mph 1026.3mb 48f
6:24 5 13 mph 1026.3mb 49f
6:18 6 13 mph 1026.2mb 48f
6:12 8 11 mph 1026mb 48f
6:06 5 7 mph 1025.8mb 48f
6:00 3 7 mph 1025.6mb 48f
5:54 2 3 mph 1025.5mb 48f
5:48 3 5 mph 1025.4mb 48f
5:42 3 6 mph 1025.2mb 47f
5:36 2 6 mph 1025.1mb 48f
5:30 5 9 mph 1025mb 48f
5:24 6 9 mph 1024.9mb 48f
5:18 6 11 mph 1024.7mb 48f
5:12 7 11 mph 1024.5mb 48f
5:06 7 13 mph 1024.4mb 49f
5:00 9 15 mph 1024.1mb 49f
4:54 9 14 mph 1023.9mb 49f
4:48 6 10 mph 1023.6mb 49f
4:42 8 11 mph 1023.5mb 49f
4:36 8 14 mph 1023.2mb 49f
4:30 9 17 mph 1023.1mb 50f
4:24 8 18 mph 1022.9mb 50f
4:18 5 9 mph 1022.6mb 50f
4:12 5 9 mph 1022.4mb 50f
4:06 5 9 mph 1022.3mb 50f
4:00 3 7 mph 1022.2mb 50f
3:54 5 10 mph 1022mb 51f
3:48 8 13 mph 1021.9mb 51f
3:42 6 14 mph 1022mb 51f
3:36 6 11 mph 1022mb 51f
3:30 9 17 mph 1021.9mb 52f
3:24 8 17 mph 1021.8mb 52f
3:18 8 18 mph 1021.6mb 52f
3:12 7 13 mph 1021.5mb 52f
3:06 7 14 mph 1021.3mb 52f
3:00 8 14 mph 1021.2mb 53f
2:54 7 15 mph 1021mb 53f
2:48 7 11 mph - 53f
2:42 7 16 mph - 53f
2:36 8 15 mph - 53f
2:30 7 16 mph 1020.8mb 53f
2:24 7 14 mph 1020.8mb 53f
2:18 8 14 mph 1020.6mb 54f
2:12 8 14 mph 1020.5mb 54f
2:06 8 15 mph 1020.4mb 55f
2:00 7 15 mph 1020.2mb 55f
1:54 8 15 mph 1020.1mb 55f
1:48 8 14 mph 1020.1mb 55f
1:42 6 14 mph 1020mb 55f
1:36 8 21 mph 1019.9mb 55f
1:30 7 13 mph 1019.9mb 55f
1:24 7 18 mph 1019.8mb 55f
1:18 7 13 mph 1019.7mb 55f
1:12 8 20 mph 1019.7mb 55f
1:06 5 11 mph 1019.7mb 56f
1:00 7 14 mph 1019.6mb 56f
12:54 7 16 mph 1019.6mb 56f
12:48 7 17 mph 1019.5mb 56f
12:42 8 17 mph 1019.5mb 56f
12:36 7 13 mph 1019.4mb 56f
12:30 8 15 mph 1019.4mb 56f
12:24 7 17 mph 1019.3mb 56f
12:18 6 14 mph 1019.2mb 57f
12:12 9 22 mph 1019.1mb 57f
12:06 9 18 mph 1019.1mb 57f
12:00 11 22 mph 1019.1mb 58f
Sex 05/22 11:54 8 18 mph 1019.1mb 57f
11:48 9 20 mph 1019mb 58f
11:42 7 17 mph 1018.9mb 58f
11:36 7 14 mph 1018.9mb 58f
11:30 8 16 mph 1018.7mb 58f
11:24 8 16 mph 1018.7mb 58f
11:18 5 11 mph 1018.7mb 58f
11:12 7 14 mph 1018.7mb 58f
11:06 5 10 mph 1018.6mb 58f
11:00 6 13 mph 1018.5mb 58f
10:54 7 15 mph 1018.5mb 58f
10:48 8 21 mph 1018.4mb 58f
10:42 5 9 mph 1018.4mb 58f
10:36 3 10 mph 1018.2mb 58f
10:30 5 10 mph 1018.1mb 59f
10:24 5 10 mph 1018.1mb 59f
10:18 5 8 mph 1018mb 59f
10:12 6 13 mph 1017.8mb 60f
10:06 6 11 mph 1017.7mb 60f
10:00 5 11 mph 1017.6mb 60f
9:54 7 16 mph 1017.6mb 61f
9:48 5 14 mph 1017.5mb 61f
9:42 5 13 mph 1017.4mb 61f
9:36 6 11 mph 1017.2mb 61f
9:30 6 11 mph 1017.1mb 61f
9:24 5 10 mph 1016.9mb 61f
9:18 6 15 mph 1016.7mb 61f
9:12 8 14 mph 1016.6mb 62f
9:06 6 10 mph 1016.5mb 62f
9:00 6 13 mph 1016.4mb 63f
8:54 3 8 mph 1016.2mb 62f
8:48 5 10 mph 1016.2mb 62f
8:42 6 11 mph 1015.8mb 63f
8:36 7 15 mph 1015.7mb 63f
8:30 6 14 mph 1015.5mb 64f
8:24 7 16 mph 1015.4mb 64f
8:18 7 16 mph 1015.2mb 64f
8:12 7 15 mph 1015mb 64f
8:06 8 15 mph 1015mb 65f
8:00 7 16 mph 1014.9mb 65f
7:54 9 17 mph 1014.6mb 65f
7:48 7 16 mph 1014.4mb 65f
7:42 8 16 mph 1014.3mb 66f
7:36 8 18 mph 1014.2mb 66f
7:30 9 16 mph 1014mb 66f
7:24 8 17 mph 1013.9mb 66f
7:18 9 16 mph 1013.7mb 67f
7:12 8 16 mph 1013.5mb 67f
7:06 8 14 mph 1013.4mb 67f
7:00 5 13 mph 1013.2mb 68f
6:54 6 14 mph 1013.1mb 68f
6:48 7 14 mph 1013mb 69f
6:42 6 15 mph 1012.8mb 69f
6:36 6 13 mph 1012.8mb 69f
6:30 9 17 mph 1012.6mb 69f
6:24 6 14 mph 1012.5mb 70f
6:18 6 16 mph 1012.4mb 70f
6:12 11 24 mph 1012.3mb 70f
6:06 7 16 mph 1012.2mb 70f
6:00 8 18 mph 1012.1mb 71f
5:54 8 14 mph 1012.1mb 71f
5:48 6 11 mph 1012mb 71f
5:42 9 20 mph 1011.9mb 71f
5:36 9 21 mph 1011.9mb 71f
5:30 9 20 mph 1011.9mb 71f
5:24 10 18 mph 1011.8mb 70f
5:18 10 17 mph 1011.6mb 70f
5:12 10 16 mph 1011.6mb 70f
5:06 10 20 mph 1011.5mb 71f
5:00 10 18 mph 1011.3mb 73f
4:54 11 16 mph 1011.3mb 71f
4:48 14 24 mph 1011.2mb 72f
4:42 9 16 mph 1011.1mb 72f
4:36 9 18 mph 1011.1mb 73f
4:30 9 20 mph 1011mb 71f
4:24 8 16 mph 1011mb 73f
4:18 14 22 mph 1010.9mb 73f
4:12 8 15 mph 1010.9mb 73f
4:06 8 14 mph 1010.8mb 72f
4:00 9 17 mph 1010.8mb 71f
3:54 8 15 mph 1010.8mb 71f
3:48 10 17 mph 1010.8mb 72f
3:42 11 20 mph 1010.8mb 72f
3:36 8 15 mph 1010.7mb 74f
3:30 6 13 mph 1010.6mb 72f
3:24 8 15 mph 1010.6mb 71f
3:18 10 17 mph 1010.6mb 71f
3:12 10 18 mph 1010.6mb 71f
3:06 9 20 mph 1010.5mb 73f
3:00 11 17 mph 1010.5mb 73f
2:54 9 16 mph 1010.4mb 72f
2:48 10 18 mph 1010.4mb 71f
2:42 10 17 mph 1010.4mb 71f
2:36 9 17 mph 1010.3mb 71f
2:30 10 16 mph 1010.3mb 71f
2:24 10 17 mph 1010.2mb 73f
2:18 8 13 mph 1010.2mb 71f
2:12 8 15 mph 1010.2mb 73f
2:06 9 18 mph 1010.2mb 72f
2:00 9 21 mph 1010.3mb 70f
1:54 7 13 mph 1010.3mb 72f
1:48 10 16 mph 1010.2mb 70f
1:42 11 21 mph 1010.1mb 73f
1:36 8 14 mph 1010.1mb 72f
1:30 8 15 mph 1010.1mb 72f
1:24 11 17 mph 1010.1mb 71f
1:18 9 17 mph 1010.1mb 72f
1:12 8 13 mph 1010.2mb 71f
1:06 7 11 mph 1010.2mb 71f
1:00 8 14 mph 1010.3mb 72f
12:54 8 17 mph 1010.3mb 72f
12:48 6 11 mph 1010.4mb 72f
12:42 7 20 mph 1010.4mb 72f
12:36 9 17 mph 1010.5mb 71f
12:30 7 14 mph 1010.4mb 71f
12:24 8 15 mph 1010.5mb 72f
12:18 7 15 mph 1010.5mb 72f
12:12 8 17 mph 1010.6mb 71f
12:06 8 13 mph 1010.6mb 70f
12:00 6 15 mph 1010.7mb 71f
11:54 6 11 mph 1010.7mb 71f
11:48 7 15 mph 1010.8mb 70f
11:42 6 13 mph 1010.7mb 70f
11:36 5 10 mph 1010.8mb 70f
11:30 8 15 mph 1010.9mb 70f
11:24 6 10 mph 1010.9mb 69f
11:18 6 11 mph 1010.9mb 69f
11:12 7 11 mph 1010.9mb 69f
11:06 5 13 mph 1010.8mb 68f
11:00 2 9 mph 1010.9mb 67f
10:54 5 9 mph 1010.9mb 66f
10:48 2 5 mph 1010.9mb 65f
10:42 5 6 mph 1010.8mb 64f
10:36 1 3 mph 1010.8mb 64f
10:30 2 5 mph 1010.8mb 64f
10:24 2 5 mph 1010.8mb 63f
10:18 1 2 mph 1010.7mb 63f
10:12 1 2 mph 1010.7mb 63f
10:06 2 3 mph 1010.7mb 62f
10:00 2 3 mph 1010.8mb 60f
9:54 2 3 mph 1010.7mb 58f
9:48 2 3 mph 1010.7mb 58f
9:42 5
mph
1010.7mb 57f
9:36 3 5 mph 1010.7mb 58f
9:30 3 5 mph 1010.7mb 57f
9:24 2 5 mph 1010.6mb 58f
9:18 3 5 mph 1010.7mb 58f
9:12 3 5 mph 1010.7mb 58f
9:06 2 5 mph 1010.7mb 58f
9:00 3 5 mph 1010.7mb 57f
8:54 2 5 mph 1010.8mb 57f
8:48 2 5 mph 1010.7mb 58f
8:42  -  2 mph 1010.8mb 58f
8:36  -  3 mph 1010.9mb 56f
8:30 1 3 mph 1010.9mb 56f
8:24 3 5 mph 1010.9mb 55f
8:18 3 7 mph 1010.9mb 55f
8:12 3 7 mph 1010.8mb 54f
8:06 3 6 mph 1010.8mb 55f
8:00 3 7 mph 1010.9mb 54f
7:54 3 7 mph 1010.9mb 54f
7:48 5 7 mph 1010.8mb 53f
7:42 3 6 mph 1010.8mb 54f
7:36 3 7 mph 1010.8mb 53f
7:30 3 5 mph 1010.9mb 52f
7:24 3 5 mph 1010.9mb 52f
7:18 2 3 mph 1010.9mb 52f
7:12 3 5 mph 1010.9mb 52f
7:06 2 5 mph 1010.9mb 52f
7:00 2 3 mph 1010.8mb 52f
6:54 2 3 mph 1010.8mb 51f
6:48 3 6 mph 1010.8mb 51f
6:42 2 3 mph 1010.8mb 51f
6:36 2 3 mph 1010.9mb 51f
6:30 2 3 mph 1010.7mb 51f
6:24 2 3 mph 1010.7mb 51f
6:18 3
mph
1010.6mb 50f
6:12 2 3 mph 1010.6mb 50f
6:06  -  1 mph 1010.3mb 50f
6:00 2 3 mph 1010.7mb 50f